When you browse on this site, cookies collect data to enhance your experience and personalize the content and advertising you see.
Visit our Privacy Policy to learn more. By continuing to use the site, you agree to this use of cookies and data.
  • In Belgien
  • Länderverzeichnis
  • Für 7 Tage
  • Wassertemperatur
  • Wetterkarte
  • Widgets
  • user-avatar
    Anmelden

    Stündliche Wetter Korfu

    Heute, 24 Februar, Montag

    Zeit Temperatur Niederschläge Wind Luftdruck Luftfeuchtigkeit
    00:00 +10°C° 0 mm 3 m/S 763 mmHg 64%
    01:00 +10°C° 0 mm 3 m/S 763 mmHg 64%
    02:00 +10°C° 0 mm 3 m/S 762 mmHg 64%
    03:00 +10°C° 0 mm 3 m/S 762 mmHg 64%
    04:00 +10°C° 0 mm 3 m/S 761 mmHg 64%
    05:00 +10°C° 0 mm 3 m/S 761 mmHg 65%
    06:00 +10°C° 0 mm 2 m/S 761 mmHg 65%
    07:00 +10°C° 0 mm 2 m/S 761 mmHg 66%
    08:00 +12°C° 0 mm 2 m/S 761 mmHg 61%
    09:00 +14°C° 0 mm 2 m/S 761 mmHg 56%
    10:00 +15°C° 0 mm 2 m/S 761 mmHg 51%
    11:00 +16°C° 0 mm 2 m/S 760 mmHg 51%
    12:00 +16°C° 0 mm 3 m/S 760 mmHg 52%
    13:00 +15°C° 0 mm 4 m/S 760 mmHg 52%
    14:00 +15°C° 0 mm 4 m/S 760 mmHg 55%
    15:00 +15°C° 0 mm 4 m/S 759 mmHg 58%
    16:00 +15°C° 0 mm 5 m/S 759 mmHg 61%
    17:00 +14°C° 0 mm 4 m/S 759 mmHg 66%
    18:00 +14°C° 0 mm 4 m/S 760 mmHg 70%
    19:00 +13°C° 0 mm 4 m/S 760 mmHg 74%
    20:00 +12°C° 0 mm 3 m/S 760 mmHg 74%
    21:00 +12°C° 0 mm 3 m/S 760 mmHg 74%
    22:00 +13°C° 0 mm 2 m/S 760 mmHg 75%
    23:00 +13°C° 0 mm 2 m/S 760 mmHg 75%

    Morgen, 25 Februar, Dienstag

    Zeit Temperatur Niederschläge Wind Luftdruck Luftfeuchtigkeit
    00:00 +13°C° 0 mm 2 m/S 760 mmHg 75%
    01:00 +13°C° 0 mm 2 m/S 760 mmHg 75%
    02:00 +12°C° 0 mm 2 m/S 760 mmHg 76%
    03:00 +12°C° 0 mm 2 m/S 759 mmHg 77%
    04:00 +12°C° 0 mm 2 m/S 759 mmHg 78%
    05:00 +11°C° 0 mm 3 m/S 759 mmHg 78%
    06:00 +11°C° 0 mm 3 m/S 759 mmHg 78%
    07:00 +11°C° 0 mm 3 m/S 759 mmHg 78%
    08:00 +13°C° 0 mm 4 m/S 759 mmHg 74%
    09:00 +14°C° 0 mm 4 m/S 759 mmHg 70%
    10:00 +16°C° 0 mm 5 m/S 759 mmHg 66%
    11:00 +16°C° 0 mm 5 m/S 759 mmHg 67%
    12:00 +16°C° 0 mm 5 m/S 759 mmHg 69%
    13:00 +16°C° 0 mm 6 m/S 758 mmHg 70%
    14:00 +16°C° 0 mm 6 m/S 758 mmHg 72%
    15:00 +16°C° 0 mm 6 m/S 757 mmHg 74%
    16:00 +15°C° 0 mm 6 m/S 757 mmHg 75%
    17:00 +14°C° 0 mm 5 m/S 757 mmHg 79%
    18:00 +13°C° 0 mm 5 m/S 757 mmHg 84%
    19:00 +13°C° 0 mm 5 m/S 757 mmHg 88%
    20:00 +11°C° 0 mm 6 m/S 757 mmHg 88%
    21:00 +11°C° 0 mm 6 m/S 756 mmHg 88%
    22:00 +11°C° 0 mm 6 m/S 756 mmHg 88%
    23:00 +11°C° 0 mm 6 m/S 756 mmHg 88%

    übermorgen, 26 Februar, Mittwoch

    Zeit Temperatur Niederschläge Wind Luftdruck Luftfeuchtigkeit
    00:00 +11°C° 0 mm 7 m/S 755 mmHg 88%
    01:00 +11°C° 0 mm 7 m/S 755 mmHg 88%
    02:00 +11°C° 0.1 mm 7 m/S 755 mmHg 87%
    03:00 +11°C° 0.1 mm 7 m/S 754 mmHg 86%
    04:00 +11°C° 0.1 mm 7 m/S 754 mmHg 85%
    05:00 +12°C° 0 mm 7 m/S 753 mmHg 85%
    06:00 +12°C° 0 mm 8 m/S 753 mmHg 84%
    07:00 +12°C° 0 mm 8 m/S 753 mmHg 84%
    08:00 +12°C° 0 mm 8 m/S 752 mmHg 83%
    09:00 +13°C° 0 mm 8 m/S 752 mmHg 82%
    10:00 +15°C° 0 mm 8 m/S 752 mmHg 81%
    11:00 +15°C° 0.1 mm 8 m/S 752 mmHg 80%
    12:00 +15°C° 0.1 mm 8 m/S 751 mmHg 80%
    13:00 +15°C° 0.1 mm 8 m/S 751 mmHg 80%
    14:00 +15°C° 0.2 mm 7 m/S 751 mmHg 80%
    15:00 +15°C° 0.2 mm 7 m/S 750 mmHg 81%
    16:00 +15°C° 0.2 mm 6 m/S 750 mmHg 81%
    17:00 +14°C° 0.3 mm 6 m/S 750 mmHg 82%
    18:00 +14°C° 0.3 mm 6 m/S 750 mmHg 83%
    19:00 +13°C° 0.3 mm 6 m/S 750 mmHg 83%
    20:00 +13°C° 0.5 mm 5 m/S 750 mmHg 83%
    21:00 +13°C° 0.5 mm 4 m/S 750 mmHg 83%
    22:00 +12°C° 0.5 mm 4 m/S 750 mmHg 83%
    23:00 +11°C° 0.7 mm 6 m/S 750 mmHg 82%

    27 Februar, Donnerstag

    Zeit Temperatur Niederschläge Wind Luftdruck Luftfeuchtigkeit
    00:00 +11°C° 0.7 mm 8 m/S 750 mmHg 82%
    01:00 +11°C° 0.7 mm 10 m/S 749 mmHg 81%
    02:00 +9°C° 1.2 mm 11 m/S 749 mmHg 78%
    03:00 +9°C° 1.2 mm 11 m/S 749 mmHg 74%
    04:00 +8°C° 1.2 mm 12 m/S 749 mmHg 71%
    05:00 +8°C° 0.3 mm 12 m/S 749 mmHg 68%
    06:00 +7°C° 0.3 mm 11 m/S 749 mmHg 65%
    07:00 +7°C° 0.3 mm 11 m/S 749 mmHg 62%
    08:00 +7°C° 0.2 mm 11 m/S 750 mmHg 65%
    09:00 +7°C° 0.2 mm 12 m/S 750 mmHg 68%
    10:00 +8°C° 0.2 mm 12 m/S 750 mmHg 71%
    11:00 +7°C° 0.2 mm 12 m/S 751 mmHg 73%
    12:00 +7°C° 0.2 mm 12 m/S 751 mmHg 75%
    13:00 +7°C° 0.2 mm 12 m/S 752 mmHg 77%
    14:00 +7°C° 0.2 mm 13 m/S 752 mmHg 73%
    15:00 +7°C° 0.2 mm 13 m/S 753 mmHg 70%
    16:00 +8°C° 0.2 mm 14 m/S 754 mmHg 67%
    17:00 +7°C° 0 mm 13 m/S 755 mmHg 66%
    18:00 +7°C° 0 mm 13 m/S 756 mmHg 66%
    19:00 +7°C° 0 mm 12 m/S 757 mmHg 65%
    20:00 +7°C° 0 mm 11 m/S 758 mmHg 64%
    21:00 +6°C° 0 mm 10 m/S 758 mmHg 62%
    22:00 +6°C° 0 mm 9 m/S 759 mmHg 60%
    23:00 +6°C° 0 mm 8 m/S 759 mmHg 60%

    28 Februar, Freitag

    Zeit Temperatur Niederschläge Wind Luftdruck Luftfeuchtigkeit
    00:00 +7°C° 0 mm 6 m/S 759 mmHg 60%
    01:00 +7°C° 0 mm 5 m/S 760 mmHg 59%
    02:00 +6°C° 0 mm 4 m/S 760 mmHg 59%
    03:00 +7°C° 0 mm 3 m/S 759 mmHg 59%
    04:00 +7°C° 0 mm 3 m/S 759 mmHg 59%
    05:00 +7°C° 0 mm 3 m/S 760 mmHg 61%
    06:00 +7°C° 0 mm 3 m/S 760 mmHg 63%
    07:00 +7°C° 0 mm 3 m/S 760 mmHg 64%
    08:00 +9°C° 0 mm 3 m/S 760 mmHg 62%
    09:00 +10°C° 0 mm 3 m/S 760 mmHg 59%
    10:00 +11°C° 0 mm 3 m/S 760 mmHg 56%
    11:00 +11°C° 0.1 mm 3 m/S 760 mmHg 60%
    12:00 +11°C° 0.1 mm 4 m/S 760 mmHg 64%
    13:00 +12°C° 0.1 mm 4 m/S 760 mmHg 68%
    14:00 +11°C° 0.2 mm 4 m/S 759 mmHg 72%
    15:00 +11°C° 0.2 mm 4 m/S 759 mmHg 77%
    16:00 +11°C° 0.2 mm 4 m/S 759 mmHg 82%
    17:00 +11°C° 0.1 mm 4 m/S 759 mmHg 83%
    18:00 +11°C° 0.1 mm 4 m/S 759 mmHg 85%
    19:00 +10°C° 0.1 mm 4 m/S 760 mmHg 86%
    20:00 +11°C° 0.1 mm 4 m/S 760 mmHg 86%
    21:00 +10°C° 0.1 mm 5 m/S 760 mmHg 86%
    22:00 +10°C° 0.1 mm 5 m/S 760 mmHg 86%
    23:00 +10°C° 0.2 mm 5 m/S 760 mmHg 86%

    29 Februar, Samstag

    Zeit Temperatur Niederschläge Wind Luftdruck Luftfeuchtigkeit
    00:00 +10°C° 0.2 mm 5 m/S 760 mmHg 87%
    01:00 +10°C° 0.2 mm 5 m/S 759 mmHg 87%
    02:00 +10°C° 0.1 mm 5 m/S 759 mmHg 87%
    03:00 +11°C° 0.1 mm 4 m/S 759 mmHg 87%
    04:00 +11°C° 0.1 mm 4 m/S 759 mmHg 87%
    05:00 +11°C° 0 mm 4 m/S 759 mmHg 87%
    06:00 +10°C° 0 mm 5 m/S 759 mmHg 88%
    07:00 +10°C° 0 mm 5 m/S 759 mmHg 88%
    08:00 +12°C° 0 mm 5 m/S 759 mmHg 86%
    09:00 +13°C° 0 mm 5 m/S 759 mmHg 83%
    10:00 +14°C° 0 mm 5 m/S 759 mmHg 81%
    11:00 +14°C° 0.1 mm 6 m/S 759 mmHg 80%
    12:00 +14°C° 0.1 mm 6 m/S 759 mmHg 78%
    13:00 +15°C° 0.1 mm 6 m/S 758 mmHg 77%
    14:00 +15°C° 0 mm 6 m/S 758 mmHg 77%
    15:00 +14°C° 0 mm 6 m/S 758 mmHg 78%
    16:00 +14°C° 0 mm 5 m/S 758 mmHg 78%
    17:00 +14°C° 0 mm 5 m/S 758 mmHg 81%
    18:00 +13°C° 0 mm 5 m/S 758 mmHg 84%
    19:00 +12°C° 0 mm 5 m/S 758 mmHg 87%
    20:00 +12°C° 0 mm 5 m/S 758 mmHg 87%
    21:00 +12°C° 0 mm 5 m/S 758 mmHg 87%
    22:00 +11°C° 0 mm 6 m/S 758 mmHg 87%
    23:00 +11°C° 0 mm 6 m/S 758 mmHg 88%
    Mehr zeigen